Lynchburg, VA

2:00 AM EST on November 17, 2019 (GMT -0500)
Lynchburg Regional-Glenn

Weather History for KLYH - September, 2019

Change the Weather History Date:

Wednesday, September 4, 2019

  Actual Average Record
Temperature  
Mean Temperature 79 °F 71 °F  
Max Temperature 95 °F 82 °F 99 °F (1925)
Min Temperature 63 °F 60 °F 43 °F (1997)
Degree Days  
Heating Degree Days 0 0  
Month to date heating degree days 0 0  
Since 1 July heating degree days 0 3  
Cooling Degree Days 14 6  
Month to date cooling degree days 51 27  
Year to date cooling degree days 1266 925  
Growing Degree Days 29 (Base 50)    
Moisture  
Dew Point 65 °F    
Average Humidity 66    
Maximum Humidity 100    
Minimum Humidity 31    
Precipitation  
Precipitation 0.00 in 0.13 in 1.41 in (1999)
Month to date precipitation T 0.52  
Year to date precipitation 27.58 28.45  
Snow  
Snow 0.00 in - - ()
Month to date snowfall 0.0  
Since 1 July snowfall 0.0  
Since 1 September snowfall 0.0  
Snow Depth 0.00 in    
Sea Level Pressure  
Sea Level Pressure 29.98 in    
Wind  
Wind Speed 4 mph (South)    
Max Wind Speed 13 mph    
Max Gust Speed 20 mph    
Visibility 10 miles    
Events      
T = Trace of Precipitation, MM = Missing Value Source: NWS Daily Summary

Daily Weather History Graph

Daily Weather History Graph

Search for Another Location

Airport or City:

Astronomy

Sep. 04, 2019 Rise Set
Actual Time 6:49 AM EDT 7:41 PM EDT
Civil Twilight 6:23 AM EDT 8:08 PM EDT
Nautical Twilight 5:51 AM EDT 8:39 PM EDT
Astronomical Twilight 5:19 AM EDT 9:11 PM EDT
Moon 12:41 PM EDT (9/4) 11:22 PM EDT (9/4)
Length of Visible Light 13h 45m
Length of Day
12h 51m
Waxing Crescent, 34% of the Moon is Illuminated
Sep 4
Waxing Crescent
Sep 5
First Quarter
Sep 14
Full
Sep 21
Last Quarter
Sep 28
New

Hourly Weather History & Observations

Time (EDT) Temp. Heat Index Dew Point Humidity Pressure Visibility Wind Dir Wind Speed Gust Speed Precip Events Conditions
3:54 AM 64.9 °F - 64.0 °F 97% 30.00 in 10.0 mi Calm Calm - N/A   Clear
4:54 AM 64.9 °F - 64.0 °F 97% 30.01 in 10.0 mi Calm Calm - N/A   Clear
5:54 AM 64.9 °F - 63.0 °F 93% 30.03 in 10.0 mi Calm Calm - N/A   Clear
6:54 AM 63.0 °F - 62.1 °F 97% 30.03 in 9.0 mi SSW 3.5 mph - N/A   Clear
7:54 AM 68.0 °F - 66.0 °F 93% 30.04 in 10.0 mi South 3.5 mph - N/A   Clear
8:54 AM 72.0 °F - 66.0 °F 81% 30.04 in 10.0 mi South 5.8 mph - N/A   Clear
9:54 AM 78.1 °F - 66.9 °F 68% 30.03 in 10.0 mi South 10.4 mph - N/A   Clear
10:54 AM 82.9 °F 85.8 °F 68.0 °F 60% 30.04 in 10.0 mi SSW 8.1 mph - N/A   Clear
11:54 AM 86.0 °F 88.8 °F 66.9 °F 53% 30.02 in 10.0 mi Variable 6.9 mph - N/A   Clear
12:54 PM 90.0 °F 91.7 °F 64.9 °F 43% 29.99 in 10.0 mi Variable 4.6 mph - N/A   Clear
1:54 PM 91.9 °F 92.9 °F 63.0 °F 38% 29.98 in 10.0 mi Calm Calm - N/A   Clear
2:54 PM 93.0 °F 93.8 °F 62.1 °F 36% 29.95 in 10.0 mi SSW 9.2 mph - N/A   Clear
3:54 PM 95.0 °F 94.8 °F 60.1 °F 31% 29.93 in 10.0 mi Variable 5.8 mph - N/A   Clear
4:54 PM 93.0 °F 94.2 °F 63.0 °F 37% 29.93 in 10.0 mi Calm Calm - N/A   Clear
5:54 PM 91.0 °F 92.6 °F 64.0 °F 41% 29.93 in 10.0 mi South 8.1 mph - N/A   Clear
6:54 PM 87.1 °F 89.9 °F 66.9 °F 51% 29.94 in 10.0 mi South 6.9 mph - N/A   Clear
7:54 PM 82.9 °F 85.8 °F 68.0 °F 60% 29.94 in 10.0 mi SSW 4.6 mph - N/A   Partly Cloudy
8:54 PM 81.0 °F 83.8 °F 68.0 °F 65% 29.96 in 10.0 mi South 4.6 mph - N/A   Clear
9:54 PM 78.1 °F - 68.0 °F 71% 29.96 in 10.0 mi South 4.6 mph - N/A   Clear
10:54 PM 75.9 °F - 68.0 °F 76% 29.95 in 10.0 mi Calm Calm - N/A   Clear
11:54 PM 73.0 °F - 68.0 °F 84% 29.94 in 10.0 mi Calm Calm - N/A   Clear